Hourly Weather Barrow in Furness

Today, 19 April, Monday

Time Temperature Precipitation Wind Pressure Humidity
00:00 +8°C° 0 mm 1 mps 766 mmHg 84%
01:00 +8°C° 0 mm 1 mps 766 mmHg 83%
02:00 +7°C° 0 mm 2 mps 766 mmHg 82%
03:00 +7°C° 0 mm 2 mps 766 mmHg 81%
04:00 +7°C° 0 mm 2 mps 766 mmHg 81%
05:00 +6°C° 0 mm 2 mps 766 mmHg 81%
06:00 +5°C° 0 mm 3 mps 766 mmHg 82%
07:00 +8°C° 0 mm 3 mps 766 mmHg 76%
08:00 +9°C° 0 mm 3 mps 766 mmHg 70%
09:00 +11°C° 0 mm 3 mps 765 mmHg 65%
10:00 +11°C° 0 mm 3 mps 765 mmHg 62%
11:00 +13°C° 0 mm 2 mps 765 mmHg 60%
12:00 +14°C° 0 mm 2 mps 765 mmHg 57%
13:00 +14°C° 0 mm 2 mps 764 mmHg 57%
14:00 +14°C° 0 mm 2 mps 764 mmHg 56%
15:00 +14°C° 0 mm 2 mps 764 mmHg 55%
16:00 +14°C° 0 mm 2 mps 764 mmHg 60%
17:00 +13°C° 0 mm 2 mps 763 mmHg 65%
18:00 +13°C° 0 mm 2 mps 763 mmHg 71%
19:00 +10°C° 0 mm 2 mps 763 mmHg 72%
20:00 +9°C° 0 mm 2 mps 764 mmHg 74%
21:00 +9°C° 0 mm 1 mps 764 mmHg 76%
22:00 +9°C° 0 mm 1 mps 764 mmHg 77%
23:00 +9°C° 0 mm 1 mps 764 mmHg 77%

Tomorrow, 20 April, Tuesday

Time Temperature Precipitation Wind Pressure Humidity
00:00 +8°C° 0 mm 1 mps 764 mmHg 78%
01:00 +9°C° 0 mm 1 mps 763 mmHg 76%
02:00 +9°C° 0 mm 1 mps 763 mmHg 75%
03:00 +9°C° 0 mm 1 mps 763 mmHg 74%
04:00 +9°C° 0 mm 1 mps 763 mmHg 74%
05:00 +9°C° 0 mm 1 mps 763 mmHg 75%
06:00 +9°C° 0 mm 1 mps 764 mmHg 76%
07:00 +10°C° 0 mm 1 mps 764 mmHg 74%
08:00 +11°C° 0 mm 1 mps 764 mmHg 72%
09:00 +11°C° 0 mm 1 mps 764 mmHg 70%
10:00 +12°C° 0 mm 1 mps 764 mmHg 68%
11:00 +12°C° 0 mm 2 mps 764 mmHg 67%
12:00 +13°C° 0 mm 2 mps 764 mmHg 65%
13:00 +13°C° 0 mm 2 mps 764 mmHg 65%
14:00 +13°C° 0 mm 2 mps 764 mmHg 65%
15:00 +13°C° 0 mm 2 mps 764 mmHg 65%
16:00 +12°C° 0 mm 3 mps 764 mmHg 68%
17:00 +12°C° 0 mm 3 mps 764 mmHg 71%
18:00 +11°C° 0 mm 3 mps 764 mmHg 75%
19:00 +10°C° 0 mm 3 mps 765 mmHg 77%
20:00 +9°C° 0 mm 3 mps 765 mmHg 80%
21:00 +8°C° 0 mm 3 mps 765 mmHg 82%
22:00 +7°C° 0 mm 3 mps 765 mmHg 84%
23:00 +7°C° 0 mm 3 mps 765 mmHg 86%

Day after tomorrow, 21 April, Wednesday

Time Temperature Precipitation Wind Pressure Humidity
00:00 +7°C° 0 mm 3 mps 765 mmHg 87%
01:00 +7°C° 0 mm 3 mps 765 mmHg 88%
02:00 +7°C° 0 mm 3 mps 765 mmHg 89%
03:00 +7°C° 0 mm 3 mps 766 mmHg 90%
04:00 +6°C° 0 mm 4 mps 766 mmHg 89%
05:00 +6°C° 0 mm 4 mps 766 mmHg 88%
06:00 +6°C° 0 mm 4 mps 766 mmHg 86%
07:00 +7°C° 0 mm 5 mps 767 mmHg 81%
08:00 +7°C° 0 mm 5 mps 767 mmHg 77%
09:00 +8°C° 0 mm 6 mps 767 mmHg 72%
10:00 +8°C° 0 mm 5 mps 767 mmHg 69%
11:00 +10°C° 0 mm 4 mps 767 mmHg 67%
12:00 +11°C° 0 mm 3 mps 767 mmHg 65%
13:00 +10°C° 0 mm 3 mps 767 mmHg 65%
14:00 +10°C° 0 mm 3 mps 767 mmHg 66%
15:00 +10°C° 0 mm 3 mps 767 mmHg 66%
16:00 +10°C° 0 mm 3 mps 767 mmHg 68%
17:00 +10°C° 0 mm 3 mps 767 mmHg 69%
18:00 +10°C° 0 mm 3 mps 767 mmHg 70%
19:00 +8°C° 0 mm 3 mps 767 mmHg 73%
20:00 +7°C° 0 mm 3 mps 767 mmHg 75%
21:00 +5°C° 0 mm 3 mps 768 mmHg 78%
22:00 +4°C° 0 mm 3 mps 768 mmHg 79%
23:00 +4°C° 0 mm 3 mps 768 mmHg 80%

22 April, Thursday

Time Temperature Precipitation Wind Pressure Humidity
00:00 +3°C° 0 mm 4 mps 768 mmHg 81%
01:00 +3°C° 0 mm 3 mps 768 mmHg 82%
02:00 +2°C° 0 mm 3 mps 768 mmHg 82%
03:00 +2°C° 0 mm 3 mps 768 mmHg 82%
04:00 +2°C° 0 mm 3 mps 768 mmHg 81%
05:00 +4°C° 0 mm 2 mps 768 mmHg 80%
06:00 +4°C° 0 mm 2 mps 768 mmHg 80%
07:00 +6°C° 0 mm 2 mps 768 mmHg 74%
08:00 +7°C° 0 mm 2 mps 768 mmHg 69%
09:00 +9°C° 0 mm 2 mps 768 mmHg 64%
10:00 +11°C° 0 mm 1 mps 768 mmHg 62%
11:00 +12°C° 0 mm 1 mps 768 mmHg 59%
12:00 +13°C° 0 mm 1 mps 768 mmHg 57%
13:00 +13°C° 0 mm 1 mps 768 mmHg 57%
14:00 +14°C° 0 mm 1 mps 768 mmHg 57%
15:00 +14°C° 0 mm 2 mps 768 mmHg 58%
16:00 +13°C° 0 mm 2 mps 768 mmHg 62%
17:00 +13°C° 0 mm 2 mps 768 mmHg 67%
18:00 +13°C° 0 mm 2 mps 768 mmHg 72%
19:00 +12°C° 0 mm 2 mps 768 mmHg 74%
20:00 +9°C° 0 mm 2 mps 768 mmHg 76%
21:00 +9°C° 0 mm 1 mps 768 mmHg 78%
22:00 +8°C° 0 mm 2 mps 769 mmHg 79%
23:00 +7°C° 0 mm 2 mps 769 mmHg 80%

23 April, Friday

Time Temperature Precipitation Wind Pressure Humidity
00:00 +6°C° 0 mm 2 mps 769 mmHg 82%
01:00 +5°C° 0 mm 3 mps 769 mmHg 82%
02:00 +5°C° 0 mm 3 mps 769 mmHg 82%
03:00 +4°C° 0 mm 3 mps 769 mmHg 82%
04:00 +4°C° 0 mm 3 mps 769 mmHg 81%
05:00 +4°C° 0 mm 3 mps 769 mmHg 80%
06:00 +5°C° 0 mm 3 mps 769 mmHg 79%
07:00 +7°C° 0 mm 3 mps 769 mmHg 73%
08:00 +9°C° 0 mm 3 mps 769 mmHg 67%
09:00 +11°C° 0 mm 3 mps 769 mmHg 61%
10:00 +13°C° 0 mm 2 mps 768 mmHg 58%
11:00 +14°C° 0 mm 2 mps 768 mmHg 56%
12:00 +15°C° 0 mm 2 mps 768 mmHg 53%
13:00 +15°C° 0 mm 2 mps 768 mmHg 52%
14:00 +15°C° 0 mm 1 mps 767 mmHg 51%
15:00 +16°C° 0 mm 1 mps 767 mmHg 50%
16:00 +15°C° 0 mm 1 mps 767 mmHg 55%
17:00 +15°C° 0 mm 2 mps 767 mmHg 60%
18:00 +14°C° 0 mm 2 mps 766 mmHg 65%
19:00 +13°C° 0 mm 2 mps 767 mmHg 67%
20:00 +10°C° 0 mm 2 mps 767 mmHg 69%
21:00 +9°C° 0 mm 3 mps 767 mmHg 70%
22:00 +8°C° 0 mm 3 mps 767 mmHg 70%
23:00 +8°C° 0 mm 3 mps 768 mmHg 70%

24 April, Saturday

Time Temperature Precipitation Wind Pressure Humidity
00:00 +7°C° 0 mm 3 mps 768 mmHg 70%
01:00 +7°C° 0 mm 3 mps 768 mmHg 74%
02:00 +5°C° 0 mm 4 mps 768 mmHg 78%
03:00 +5°C° 0 mm 4 mps 768 mmHg 82%
04:00 +5°C° 0 mm 5 mps 768 mmHg 82%
05:00 +5°C° 0 mm 5 mps 768 mmHg 83%
06:00 +4°C° 0 mm 6 mps 769 mmHg 83%
07:00 +6°C° 0 mm 7 mps 769 mmHg 78%
08:00 +8°C° 0 mm 7 mps 769 mmHg 73%
09:00 +9°C° 0 mm 8 mps 770 mmHg 68%
10:00 +9°C° 0 mm 8 mps 770 mmHg 68%
11:00 +8°C° 0 mm 9 mps 770 mmHg 67%
12:00 +7°C° 0 mm 9 mps 770 mmHg 67%
13:00 +9°C° 0 mm 8 mps 771 mmHg 63%
14:00 +9°C° 0 mm 8 mps 771 mmHg 59%
15:00 +9°C° 0 mm 8 mps 771 mmHg 54%
16:00 +7°C° 0 mm 8 mps 771 mmHg 57%
17:00 +7°C° 0 mm 8 mps 771 mmHg 59%
18:00 +6°C° 0 mm 8 mps 772 mmHg 62%
19:00 +5°C° 0 mm 7 mps 772 mmHg 66%
20:00 +3°C° 0 mm 7 mps 773 mmHg 69%
21:00 +2°C° 0 mm 7 mps 773 mmHg 73%
22:00 0°C° 0 mm 7 mps 773 mmHg 75%
23:00 +1°C° 0 mm 6 mps 774 mmHg 78%
Show more